TOM89K EGGD-LIPX

Flight info

Callsign TOM89K
Flight time N/A
Altitude 39000
Route YORQI DCT NUCHU L607 ALHAD UN859 VAPID L18 MID UL612 OGULO DCT OKASI DCT OKEKO DCT MOU DCT MADIV DCT MOKIP DCT TUFTA DCT GEVEA/N0452F350 DCT ORSUD DCT BIBAN DCT TZO
Aircraft B38M/M-SDE1FGHILORVWXY/HB1

Departure

Time N/A
Airport Bristol Airport (EGGD)

Arrival

Time 2026-04-28 17:13
Airport Verona Villafranca Valerio Catullo Airport (LIPX)
Time Latitude Longitude Altitude Speed Heading
2026-04-28 16:33 46.46543 5.00347 39017 ft 482 kts 107°
2026-04-28 16:33 46.45974 5.03461 39013 ft 482 kts 107°
2026-04-28 16:33 46.43954 5.14458 39014 ft 484 kts 107°
2026-04-28 16:34 46.42214 5.23885 39014 ft 484 kts 107°
2026-04-28 16:34 46.40459 5.33334 39019 ft 487 kts 107°
2026-04-28 16:35 46.38698 5.42822 39017 ft 487 kts 107°
2026-04-28 16:35 46.36936 5.52299 39015 ft 487 kts 107°
2026-04-28 16:36 46.35168 5.61760 39026 ft 488 kts 107°
2026-04-28 16:36 46.33385 5.71250 39043 ft 489 kts 107°
2026-04-28 16:37 46.31590 5.80757 39046 ft 490 kts 107°
2026-04-28 16:38 46.28885 5.94993 39042 ft 489 kts 107°
2026-04-28 16:38 46.27072 6.04476 39052 ft 489 kts 107°
2026-04-28 16:39 46.25169 6.13914 39045 ft 488 kts 113°
2026-04-28 16:39 46.22674 6.23031 39050 ft 488 kts 113°
2026-04-28 16:40 46.20168 6.32066 39045 ft 488 kts 114°
2026-04-28 16:40 46.17636 6.41149 39036 ft 487 kts 113°
2026-04-28 16:41 46.15100 6.50214 39036 ft 487 kts 114°
2026-04-28 16:41 46.12554 6.59278 39046 ft 488 kts 114°
2026-04-28 16:42 46.10006 6.68311 39039 ft 487 kts 114°
2026-04-28 16:42 46.07447 6.77355 39068 ft 487 kts 114°
2026-04-28 16:43 46.04895 6.86336 39050 ft 483 kts 114°
2026-04-28 16:43 46.02339 6.95303 39066 ft 484 kts 114°
2026-04-28 16:44 45.99778 7.04253 39037 ft 484 kts 114°
2026-04-28 16:44 45.97212 7.13192 39083 ft 484 kts 114°
2026-04-28 16:45 45.95324 7.22359 39061 ft 483 kts 99°
2026-04-28 16:45 45.94154 7.31899 39018 ft 485 kts 100°
2026-04-28 16:46 45.92994 7.41457 39080 ft 487 kts 100°
2026-04-28 16:46 45.91464 7.50883 39138 ft 483 kts 104°
2026-04-28 16:47 45.89870 7.60298 39084 ft 486 kts 104°
2026-04-28 16:47 45.88273 7.69722 39085 ft 486 kts 104°
2026-04-28 16:48 45.86672 7.79123 39104 ft 486 kts 104°
2026-04-28 16:48 45.85059 7.88541 39076 ft 486 kts 104°
2026-04-28 16:49 45.83443 7.97930 39119 ft 486 kts 104°
2026-04-28 16:49 45.81814 8.07341 39076 ft 486 kts 104°
2026-04-28 16:50 45.80182 8.16724 39110 ft 486 kts 104°
2026-04-28 16:50 45.78534 8.26145 39043 ft 486 kts 104°
2026-04-28 16:51 45.76895 8.35468 38733 ft 487 kts 104°
2026-04-28 16:51 45.76044 8.40280 37571 ft 494 kts 105°
2026-04-28 16:51 45.75206 8.45015 37100 ft 488 kts 105°
2026-04-28 16:51 45.74371 8.49724 36367 ft 488 kts 105°
2026-04-28 16:52 45.73532 8.54437 35586 ft 489 kts 105°
2026-04-28 16:52 45.72690 8.59155 34784 ft 492 kts 105°
2026-04-28 16:52 45.72127 8.62304 34268 ft 493 kts 106°
2026-04-28 16:52 45.71273 8.67074 33379 ft 496 kts 105°
2026-04-28 16:53 45.70414 8.71861 32520 ft 497 kts 105°
2026-04-28 16:53 45.69551 8.76652 31676 ft 497 kts 105°
2026-04-28 16:53 45.68685 8.81447 30870 ft 497 kts 105°
2026-04-28 16:53 45.67818 8.86236 30061 ft 497 kts 105°
2026-04-28 16:54 45.66667 8.92570 28739 ft 495 kts 105°
2026-04-28 16:54 45.66086 8.95763 27722 ft 493 kts 105°
2026-04-28 16:54 45.65220 9.00510 26287 ft 492 kts 105°
2026-04-28 16:54 45.64361 9.05208 25576 ft 485 kts 105°
2026-04-28 16:55 45.63511 9.09838 24935 ft 479 kts 105°
2026-04-28 16:55 45.62667 9.14429 24205 ft 476 kts 105°
2026-04-28 16:55 45.61825 9.18995 23470 ft 474 kts 105°
2026-04-28 16:55 45.60988 9.23527 22645 ft 471 kts 105°
2026-04-28 16:56 45.60154 9.28026 21936 ft 466 kts 105°
2026-04-28 16:56 45.59327 9.32486 21247 ft 463 kts 105°
2026-04-28 16:56 45.58504 9.36914 20532 ft 460 kts 106°
2026-04-28 16:56 45.57684 9.41316 19970 ft 457 kts 106°
2026-04-28 16:57 45.56869 9.45686 19291 ft 454 kts 106°
2026-04-28 16:57 45.56042 9.50018 18594 ft 451 kts 109°
2026-04-28 16:57 45.54806 9.54101 17814 ft 447 kts 117°
2026-04-28 16:57 45.53491 9.58088 17181 ft 441 kts 116°
2026-04-28 16:58 45.52195 9.62027 16532 ft 436 kts 117°
2026-04-28 16:58 45.50914 9.65912 15883 ft 431 kts 117°
2026-04-28 16:58 45.49641 9.69762 15249 ft 427 kts 117°
2026-04-28 16:58 45.48383 9.73563 14665 ft 421 kts 117°
2026-04-28 16:59 45.47141 9.77313 13978 ft 417 kts 116°
2026-04-28 16:59 45.45906 9.81034 13331 ft 413 kts 116°
2026-04-28 16:59 45.44683 9.84712 12716 ft 408 kts 116°
2026-04-28 16:59 45.43476 9.88340 12157 ft 403 kts 116°
2026-04-28 17:00 45.42285 9.91912 11649 ft 396 kts 116°
2026-04-28 17:00 45.41124 9.95391 11451 ft 382 kts 116°
2026-04-28 17:00 45.40020 9.98698 11263 ft 369 kts 116°
2026-04-28 17:00 45.38935 10.01944 11062 ft 358 kts 116°
2026-04-28 17:01 45.37883 10.05092 10861 ft 348 kts 116°
2026-04-28 17:01 45.36860 10.08150 10686 ft 337 kts 116°
2026-04-28 17:01 45.35866 10.11114 10516 ft 327 kts 116°
2026-04-28 17:01 45.34902 10.13988 10365 ft 317 kts 116°
2026-04-28 17:02 45.33965 10.16778 10208 ft 308 kts 117°
2026-04-28 17:02 45.33055 10.19486 10065 ft 300 kts 117°
2026-04-28 17:02 45.32166 10.22128 9836 ft 294 kts 117°
2026-04-28 17:02 45.31102 10.24577 9455 ft 291 kts 132°
2026-04-28 17:03 45.28422 10.28828 8809 ft 287 kts 133°
2026-04-28 17:03 45.27100 10.30940 8485 ft 285 kts 133°
2026-04-28 17:03 45.25791 10.33032 8216 ft 282 kts 133°
2026-04-28 17:04 45.23200 10.37192 7560 ft 281 kts 133°
2026-04-28 17:04 45.21912 10.39259 7276 ft 278 kts 133°
2026-04-28 17:05 45.19392 10.43301 6896 ft 266 kts 133°
2026-04-28 17:05 45.18182 10.45238 6736 ft 258 kts 133°
2026-04-28 17:05 45.17009 10.47112 6630 ft 250 kts 133°
2026-04-28 17:06 45.15259 10.51129 6191 ft 244 kts 95°
2026-04-28 17:06 45.15510 10.53444 5910 ft 242 kts 65°
2026-04-28 17:06 45.17639 10.57059 5408 ft 236 kts 45°
2026-04-28 17:07 45.18773 10.58698 5146 ft 235 kts 45°
2026-04-28 17:07 45.19916 10.60350 4959 ft 229 kts 45°
2026-04-28 17:07 45.21010 10.61934 4703 ft 227 kts 45°
2026-04-28 17:07 45.22112 10.63527 4481 ft 224 kts 46°
2026-04-28 17:08 45.23187 10.65083 4321 ft 218 kts 46°
2026-04-28 17:08 45.24240 10.66606 4136 ft 216 kts 46°
2026-04-28 17:08 45.25293 10.68131 3877 ft 216 kts 47°
2026-04-28 17:08 45.26338 10.69643 3648 ft 214 kts 47°
2026-04-28 17:09 45.27385 10.71161 3358 ft 215 kts 47°
2026-04-28 17:09 45.28435 10.72683 3071 ft 216 kts 47°
2026-04-28 17:09 45.29472 10.74186 2784 ft 208 kts 47°
2026-04-28 17:09 45.30458 10.75617 2528 ft 197 kts 47°
2026-04-28 17:10 45.31395 10.76976 2266 ft 188 kts 46°
2026-04-28 17:10 45.32295 10.78284 2019 ft 181 kts 47°
2026-04-28 17:10 45.33137 10.79505 1797 ft 167 kts 47°
2026-04-28 17:10 45.33935 10.80666 1567 ft 163 kts 46°
2026-04-28 17:11 45.34706 10.81784 1372 ft 151 kts 46°
2026-04-28 17:11 45.35422 10.82826 1188 ft 145 kts 45°
2026-04-28 17:11 45.36124 10.83845 993 ft 143 kts 47°
2026-04-28 17:11 45.36821 10.84860 797 ft 144 kts 48°
2026-04-28 17:12 45.37524 10.85878 650 ft 144 kts 47°
2026-04-28 17:12 45.38237 10.86914 408 ft 144 kts 47°
2026-04-28 17:12 45.38936 10.87930 244 ft 141 kts 48°
2026-04-28 17:12 45.39551 10.88824 242 ft 111 kts 45°
2026-04-28 17:13 45.40003 10.89483 246 ft 70 kts 46°
2026-04-28 17:13 45.40225 10.89807 249 ft 28 kts 46°
2026-04-28 17:13 45.40299 10.90018 248 ft 21 kts 78°
2026-04-28 17:13 45.40322 10.90169 246 ft 12 kts 77°
2026-04-28 17:14 45.40330 10.90269 245 ft 11 kts 92°
2026-04-28 17:14 45.40307 10.90323 245 ft 6 kts 146°
2026-04-28 17:14 45.40263 10.90370 245 ft 9 kts 136°
2026-04-28 17:14 45.40271 10.90438 245 ft 8 kts 43°
2026-04-28 17:15 45.40301 10.90499 245 ft 5 kts 99°
2026-04-28 17:15 45.40279 10.90542 245 ft 3 kts 135°
2026-04-28 17:15 45.40272 10.90551 245 ft 0 kts 135°